Regional Weather Roundup
Issued by NWS Little Rock, AR

Home | Current Version | Previous Version | Graphics & Text | Print | Product List | Glossary On
Versions: 1 2 3 4 5 6 7 8 9 10 11 12 13 14 15 16 17 18 19 20 21 22 23 24 25 26 27 28 29 30 31 32 33 34 35 36 37 38 39 40 41 42 43 44 45 46 47 48 49 50
000
ASUS44 KLZK 290205
RWRLZK

WEATHER ROUNDUP FOR ARKANSAS
NATIONAL WEATHER SERVICE LITTLE ROCK AR
800 PM CST WED JAN 28 2015

NOTE: "FAIR" INDICATES FEW OR NO CLOUDS BELOW 12,000 FEET WITH NO
SIGNIFICANT WEATHER AND/OR OBSTRUCTIONS TO VISIBILITY.

ARZ001-003-010-029-290300-
NORTHWEST ARKANSAS

CITY           SKY/WX    TMP DP  RH WIND       PRES   REMARKS
FAYETTEVILLE   MOCLDY    61  43  51 S13       29.93S
FORT SMITH     MOCLDY    55  43  63 NE7       29.94S
HARRISON       CLOUDY    58  42  55 S12       29.93F
BENTONVILLE    CLOUDY    61  39  44 S13G18    29.92S
ROGERS         CLOUDY    60  42  51 S16       29.92
SILOAM SPGS    MOCLDY    63  39  42 S14       29.93R
HIGHFILL       MOCLDY    61  42  49 S15       29.91R
SPRINGDALE     PTCLDY    63  43  48 S17G29    29.94S
$$

ARZ004-005-016-290300-
NORTH CENTRAL ARKANSAS

CITY           SKY/WX    TMP DP  RH WIND       PRES   REMARKS
BATESVILLE     PTCLDY    52  37  58 SE9       30.04F
FLIPPIN        MOCLDY    55  36  47 S7        29.96F
MTN HOME       MOCLDY    52  37  56 S9        29.96F
$$

ARZ040-041-290300-
WEST CENTRAL ARKANSAS

CITY           SKY/WX    TMP DP  RH WIND       PRES   REMARKS
MENA           CLOUDY    70  45  40 S9        30.00F
MOUNT IDA      MOCLDY    67  44  43 VRB6      29.99F
$$

ARZ009-017-025-026-028-290300-
NORTHEAST ARKANSAS

CITY           SKY/WX    TMP DP  RH WIND       PRES   REMARKS
CORNING        FAIR      46  37  71 S9        30.04F
JONESBORO      PTCLDY    47  38  71 SW7       30.07S
NEWPORT        PTCLDY    48  41  77 S12       30.07S
WALNUT RIDGE   PTCLDY    46  36  66 S12       30.05S
BLYTHEVILLE    MOCLDY    47  33  58 S8        30.09R
$$

ARZ022-023-033-042-044-290300-
CENTRAL ARKANSAS

CITY           SKY/WX    TMP DP  RH WIND       PRES   REMARKS
LITTLE ROCK    MOCLDY    55  40  56 SE8       30.05F
N LITTLE ROCK  MOCLDY    55  44  67 S14G20    30.05F
JACKSONVILLE   PTCLDY    55  41  60 SE7       30.05S
SEARCY         PTCLDY    52  41  66 S7        30.06F
HOT SPRINGS    MOCLDY    56  44  64 E8        30.03F
RUSSELLVILLE   CLOUDY    57  40  52 E7        29.99S
CLINTON        FAIR      45  37  76 CALM      30.05S
$$

ARZ036-290300-
EAST ARKANSAS

CITY           SKY/WX    TMP DP  RH WIND       PRES   REMARKS
WEST MEMPHIS   PTCLDY    49  36  61 S9        30.09R
$$

ARZ050-053-066-070-073-290300-
SOUTHWEST ARKANSAS

CITY           SKY/WX    TMP DP  RH WIND       PRES   REMARKS
ARKADELPHIA    FAIR      55  47  74 CALM      30.05R
CAMDEN         MOCLDY    59  41  51 MISG      30.06F
TEXARKANA      CLOUDY    65  44  46 S13       30.04S
EL DORADO      MOCLDY    59  41  51 SE7       30.08F
DE QUEEN       MOCLDY    67  45  45 S7        30.00R
$$

ARZ056-057-069-290300-
SOUTHEAST ARKANSAS

CITY           SKY/WX    TMP DP  RH WIND       PRES   REMARKS
PINE BLUFF     PTCLDY    53  41  63 SE9       30.07F
STUTTGART      CLEAR     52  39  62 SE8       30.08S
MONTICELLO     MOCLDY    58  42  55 S8        30.10R

$$





USA.gov is the U.S. government's official web portal to all federal, state and local government web resources and services.